This demonstration page uses our WeatherBlox Daily Observations layout. Learn more.

36.17497, -115.13722

Hourly Observations for October 5, 2018

Temp ( °F °C ) Dew Point ( °F °C ) Humidity (%) Winds ( mph kmh ) Pressure ( in mb ) Visibility ( mi km ) Precip ( " mm )
12:53 am 00:53 Clear 69 20.6 42 5.6 38 38 W 5 7 29.85 1011 10 16.09344 0 0
1:53 am 01:53 Mostly Clear 69 20.6 43 6.1 39 39 N 6 9 29.85 1011 10 16.09344 0 0
2:53 am 02:53 Partly Cloudy 68 20 42 5.6 39 39 N 5 7 29.88 1012 10 16.09344 0 0
3:53 am 03:53 Partly Cloudy 66 18.9 42 5.6 42 42 N 7 11 29.88 1012 10 16.09344 0 0
4:53 am 04:53 Partly Cloudy 69 20.6 42 5.6 38 38 NNW 15 24 29.88 1012 10 16.09344 0 0
5:53 am 05:53 Mostly Clear 69 20.6 43 6.1 39 39 NNW 20 31 29.88 1012 10 16.09344 0 0
6:53 am 06:53 Sunny 69 20.6 43 6.1 39 39 NNW 14 22 29.91 1013 10 16.09344 0 0
7:53 am 07:53 Sunny 69 20.6 43 6.1 39 39 NNE 12 19 29.94 1014 10 16.09344 0 0
8:53 am 08:53 Sunny 72 22.2 42 5.6 34 34 N 14 22 29.97 1015 10 16.09344 0 0
9:53 am 09:53 Sunny 75 23.9 43 6.1 32 32 NNE 14 22 29.97 1015 10 16.09344 0 0
10:53 am 10:53 Sunny 76 24.4 41 5 29 29 N 14 22 29.94 1014 10 16.09344 0 0
11:53 am 11:53 Sunny 78 25.6 41 5 27 27 NNW 9 15 29.94 1014 10 16.09344 0 0
12:53 pm 12:53 Sunny 80 26.7 38 3.3 22 22 N 14 22 29.91 1013 10 16.09344 0 0
1:53 pm 13:53 Sunny 81 27.2 38 3.3 21 21 N 9 15 29.88 1012 10 16.09344 0 0
2:53 pm 14:53 Sunny 82 27.8 35 1.7 18 18 N 10 17 29.85 1011 10 16.09344 0 0
3:53 pm 15:53 Sunny 81 27.2 36 2.2 20 20 N 5 7 29.85 1011 10 16.09344 0 0
4:53 pm 16:53 Sunny 81 27.2 37 2.8 21 21 WNW 3 6 29.85 1011 10 16.09344 0 0
5:53 pm 17:53 Sunny 81 27.2 37 2.8 21 21 N 5 7 29.83 1010 10 16.09344 0 0
6:53 pm 18:53 Clear 78 25.6 38 3.3 24 24 NE 3 6 29.83 1010 10 16.09344 0 0
7:53 pm 19:53 Clear 77 25 39 3.9 26 26 Calm 29.85 1011 10 16.09344 0 0
8:53 pm 20:53 Clear 76 24.4 38 3.3 25 25 Calm 29.83 1010 10 16.09344 0 0
9:53 pm 21:53 Clear 72 22.2 40 4.4 31 31 Calm 29.85 1011 10 16.09344 0 0
10:53 pm 22:53 Clear 68 20 40 4.4 36 36 NNW 5 7 29.83 1010 10 16.09344 0 0
11:53 pm 23:53 Clear 67 19.4 40 4.4 37 37 NNW 5 7 29.83 1010 10 16.09344 0 0

Powered by AerisWeather